STARLINK-11326, 62010

Orbit data source: Space-Track

STARLINK-11326, 62010 is a payload satellite owned by SpaceX/Seattle (US) in LEO that was launched on Mon, 18 Nov 2024 UTC via an FALCON 9 launch vehicle from the Air Force Western Test Range (AFWTR). Payload-class satellites include a variety of spacecraft equipped with specific instruments for various scientific and technological missions. These include communications satellites like Starlink; space stations such as the ISS; scientific satellites like the Hubble; Earth observation satellites from companies like Planet Labs, Umbra, and HawkEye 360; GPS; miniature CubeSats for education and research; and military/defense satellites.

Loading next visibility...
Identifier
62010, 2024-213C
Orbit
LEO
Last TLE update
16 hours ago
Origin
Manufacturer
SpaceX/Seattle
Mission
Operational Commercial Communications
Bus & Motor
STARLINK V2M, Unknown motor
Mass
730 kg wet, ~700 kg dry
Launch date (UTC)
2024-11-18 (7 months ago)
Launch vehicle
FALCON 9
Launch site
Air Force Western Test Range (AFWTR)
Object type
Payload
Rocket body
Debris
Shape & HBR
Box + 2 Pan, 29 m
Radar Cross Section
36.964 m², Large (>1 m²)

Expand to show TLE details & history

TLE from 16 hours ago
0 STARLINK-11326
1 62010U 24213C   25181.49050586  .00097521  00000-0  79861-3 0  9993
2 62010  53.1577 204.5700 0002505 164.6460 195.4635 15.69761111 35308
Epoch: 2025-06-30T11:46Z
TLE epoch observation values (Epoch: 2025-06-30T11:46:19.706Z)
Latitude
0.00004°
Longitude
109.18836°
Altitude
362.122 km
Speed
7.692 km/s
True Right ascension
13h 38m 16s
True Declination
0° 00' 00"
Sunlit
Object was in daylight at epoch
Visualization orbit readout
Latitude
-13.5384°
Longitude
-63.78861°
Altitude
361.383 km
Speed
7.694 km/s
Apparent Right ascension
02h 42m 18s
Apparent Declination
-26° 35' 38"
Sunlit
Object is in daylight
Visualization observer readout
Local Sidereal Time
15:30:33
Azimuth
40.629° NE
Elevation
-73.326°
Doppler factor
1
Orbital elements
Apogee altitude
361.529 km
Perigee altitude
358.154 km
Semi-major axis
6,737.979 km
Eccentricity
0.00025
Inclination
53.1577°
RAAN
204.57°
Arg. of periapsis
164.646°
True anomaly
Unknown
Mean anomaly
195.4635°
Eccentric anomaly
Unknown
Mean motion
3.92418 °/min
Orbital period
91.74 mins
BSTAR
0.00079861
Loading maneuver chart data...
Loading SW <> Apogee altitude chart data...
Loading historical data...
Loading historical data...
Loading historical data...
Loading historical data...
Loading historical data...
Loading historical data...
Loading historical data...

STARLINK-11326 Visibility forecast

Observer location: undefined°, undefined°

Span
Click to sort rows by Start time (UTC) header in descending order
Start Az.
Max El. time (UTC)
Max El. Az.
Max El.
End time (UTC)
End Az.
5 mins2025-07-01 04:47:11.034Z254.726° W2025-07-01 04:49:11.034Z311.27° NW33.972°2025-07-01 04:52:11.034Z38.305° NE
4 mins2025-07-01 11:12:11.034Z303.23° NW2025-07-01 11:14:11.034Z191.025° SSW42.929°2025-07-01 11:16:11.034Z139.295° SSE
4 mins2025-07-02 03:41:11.034Z207.695° SW2025-07-02 03:43:11.034Z95.736° ESE36.764°2025-07-02 03:45:11.034Z59.279° ENE
|